| time (UTC) | temp C | wind direction | speed KPH | gust KPH | rain 1hr cm | rain 24hr cm | rain mn cm | humidity % | barometer mb |
| 20260905083025 | 21 | 172 | 0.0 | 1.6 | 0.00 | 0.58 | 0.00 | 97 | 1009.2 |
| 20260905081503 | 21 | 0 | 0.0 | 0.0 | 0.00 | 0.58 | 0.00 | 97 | 1009.2 |
| 20260905080004 | 21 | 124 | 0.0 | 1.6 | 0.00 | 0.58 | 0.00 | 97 | 1009.4 |
| 20260905074526 | 21 | 0 | 0.0 | 0.0 | 0.00 | 0.58 | 0.00 | 97 | 1009.5 |
| 20260905073005 | 21 | 107 | 0.0 | 1.6 | 0.00 | 0.58 | 0.00 | 97 | 1009.5 |
| 20260905071505 | 21 | 0 | 0.0 | 0.0 | 0.00 | 0.58 | 0.00 | 97 | 1009.3 |
| 20260905070005 | 21 | 0 | 0.0 | 0.0 | 0.00 | 0.58 | 0.00 | 97 | 1009.3 |
| 20260905064505 | 21 | 120 | 0.0 | 1.6 | 0.00 | 0.58 | 0.00 | 97 | 1009.5 |
| 20260905063005 | 21 | 0 | 0.0 | 0.0 | 0.00 | 0.58 | 0.00 | 97 | 1009.5 |
| 20260905061505 | 21 | 110 | 0.0 | 1.6 | 0.00 | 0.58 | 0.00 | 97 | 1009.7 |
| 20260905060005 | 22 | 124 | 0.0 | 1.6 | 0.00 | 0.58 | 0.00 | 97 | 1009.8 |
| 20260905054505 | 22 | 125 | 0.0 | 1.6 | 0.00 | 0.58 | 0.00 | 97 | 1010.1 |
| 20260905053005 | 22 | 116 | 0.0 | 3.2 | 0.00 | 0.58 | 0.00 | 97 | 1010.2 |
| 20260905051505 | 22 | 79 | 0.0 | 1.6 | 0.00 | 0.58 | 0.00 | 97 | 1010.6 |
| 20260905050005 | 22 | 171 | 0.0 | 1.6 | 0.00 | 0.58 | 0.00 | 97 | 1010.8 |
| 20260905044505 | 22 | 0 | 0.0 | 0.0 | 0.00 | 0.58 | 0.00 | 97 | 1010.7 |
| 20260905043005 | 22 | 115 | 0.0 | 1.6 | 0.00 | 0.58 | 0.00 | 97 | 1010.8 |
| 20260905041505 | 23 | 0 | 0.0 | 0.0 | 0.00 | 0.58 | 0.00 | 97 | 1011.0 |
| 20260905040006 | 23 | 123 | 0.0 | 3.2 | 0.00 | 0.58 | 0.00 | 97 | 1011.2 |
| 20260905034525 | 23 | 148 | 0.0 | 8.0 | 0.00 | 0.58 | 0.58 | 97 | 1011.1 |
| 20260905033005 | 23 | 127 | 0.0 | 1.6 | 0.00 | 0.58 | 0.58 | 97 | 1011.0 |
| 20260905031526 | 23 | 0 | 0.0 | 0.0 | 0.00 | 0.58 | 0.58 | 97 | 1010.4 |
| 20260905030005 | 23 | 0 | 0.0 | 0.0 | 0.03 | 0.58 | 0.58 | 97 | 1009.9 |
| 20260905024505 | 23 | 0 | 0.0 | 0.0 | 0.08 | 0.58 | 0.58 | 97 | 1010.5 |
| 20260905023004 | 22 | 0 | 0.0 | 0.0 | 0.18 | 0.58 | 0.58 | 96 | 1011.4 |
| 20260905021505 | 23 | 289 | 0.0 | 4.8 | 0.23 | 0.58 | 0.58 | 96 | 1011.9 |
| 20260905020004 | 23 | 298 | 0.0 | 6.4 | 0.23 | 0.56 | 0.56 | 96 | 1012.2 |
| 20260905014505 | 23 | 142 | 0.0 | 4.8 | 0.20 | 0.51 | 0.51 | 95 | 1014.1 |
| 20260905013026 | 23 | 115 | 0.0 | 11.3 | 0.15 | 0.41 | 0.43 | 95 | 1014.4 |
| 20260905011526 | 23 | 118 | 0.0 | 4.8 | 0.13 | 0.36 | 0.36 | 94 | 1014.0 |
| 20260905010005 | 23 | 108 | 1.6 | 8.0 | 0.15 | 0.33 | 0.33 | 94 | 1013.8 |
| 20260905004504 | 23 | 110 | 0.0 | 9.7 | 0.25 | 0.30 | 0.30 | 94 | 1014.0 |
| 20260905003005 | 23 | 144 | 0.0 | 1.6 | 0.23 | 0.25 | 0.25 | 92 | 1013.1 |
| 20260905001525 | 24 | 129 | 0.0 | 3.2 | 0.20 | 0.23 | 0.23 | 91 | 1012.4 |
| 20260905000005 | 25 | 123 | 1.6 | 11.3 | 0.13 | 0.15 | 0.15 | 88 | 1013.0 |
| 20260904234505 | 26 | 127 | 0.0 | 9.7 | 0.03 | 0.05 | 0.05 | 86 | 1013.2 |
| 20260904233025 | 27 | 260 | 0.0 | 1.6 | 0.00 | 0.03 | 0.03 | 87 | 1012.6 |
| 20260904231504 | 27 | 287 | 0.0 | 1.6 | 0.00 | 0.03 | 0.03 | 87 | 1011.7 |
| 20260904230005 | 26 | 272 | 0.0 | 4.8 | 0.00 | 0.03 | 0.03 | 86 | 1012.0 |
| 20260904224505 | 26 | 272 | 0.0 | 3.2 | 0.00 | 0.03 | 0.03 | 84 | 1012.2 |
| 20260904223005 | 26 | 0 | 0.0 | 0.0 | 0.00 | 0.03 | 0.03 | 83 | 1011.5 |
| 20260904221505 | 26 | 134 | 0.0 | 1.6 | 0.00 | 0.03 | 0.03 | 84 | 1011.5 |
| 20260904220004 | 26 | 241 | 0.0 | 1.6 | 0.00 | 0.03 | 0.03 | 84 | 1011.7 |
| 20260904214505 | 26 | 286 | 0.0 | 3.2 | 0.00 | 0.03 | 0.03 | 85 | 1011.6 |
| 20260904213005 | 26 | 39 | 1.6 | 11.3 | 0.00 | 0.03 | 0.03 | 87 | 1011.9 |
| 20260904211526 | 26 | 67 | 0.0 | 9.7 | 0.03 | 0.03 | 0.03 | 84 | 1011.6 |
| 20260904210004 | 28 | 57 | 1.6 | 8.0 | 0.03 | 0.03 | 0.03 | 86 | 1011.9 |
| 20260904204526 | 30 | 0 | 0.0 | 0.0 | 0.03 | 0.03 | 0.03 | 90 | 1011.6 |
| 20260904203004 | 32 | 0 | 0.0 | 0.0 | 0.03 | 0.03 | 0.03 | 82 | 1010.3 |
| 20260904201504 | 33 | 133 | 1.6 | 6.4 | 0.00 | 0.00 | 0.00 | 70 | 1010.9 |
| 20260904200005 | 34 | 184 | 1.6 | 12.9 | 0.00 | 0.00 | 0.00 | 68 | 1010.7 |
| 20260904194504 | 35 | 147 | 1.6 | 9.7 | 0.00 | 0.00 | 0.00 | 65 | 1011.1 |
| 20260904193004 | 36 | 167 | 1.6 | 11.3 | 0.00 | 0.00 | 0.00 | 63 | 1011.2 |
| 20260904191504 | 36 | 174 | 1.6 | 16.1 | 0.00 | 0.00 | 0.00 | 65 | 1011.5 |
| 20260904190004 | 36 | 198 | 1.6 | 14.5 | 0.00 | 0.00 | 0.00 | 64 | 1011.9 |
| 20260904184504 | 35 | 223 | 3.2 | 12.9 | 0.00 | 0.00 | 0.00 | 65 | 1012.0 |
| 20260904183025 | 35 | 184 | 1.6 | 9.7 | 0.00 | 0.00 | 0.00 | 65 | 1012.2 |
| 20260904181504 | 35 | 170 | 1.6 | 8.0 | 0.00 | 0.00 | 0.00 | 66 | 1012.4 |
| 20260904180004 | 36 | 201 | 1.6 | 6.4 | 0.00 | 0.00 | 0.00 | 66 | 1012.7 |
| 20260904174504 | 35 | 193 | 1.6 | 6.4 | 0.00 | 0.00 | 0.00 | 67 | 1012.7 |
| 20260904173004 | 35 | 179 | 1.6 | 11.3 | 0.00 | 0.00 | 0.00 | 68 | 1012.9 |
| 20260904171504 | 35 | 215 | 1.6 | 9.7 | 0.00 | 0.00 | 0.00 | 67 | 1013.0 |
| 20260904170004 | 35 | 208 | 1.6 | 11.3 | 0.00 | 0.00 | 0.00 | 68 | 1013.1 |
| 20260904164504 | 34 | 184 | 1.6 | 8.0 | 0.00 | 0.00 | 0.00 | 69 | 1013.2 |
| 20260904163004 | 34 | 177 | 3.2 | 9.7 | 0.00 | 0.00 | 0.00 | 70 | 1013.4 |
| 20260904161504 | 34 | 213 | 1.6 | 9.7 | 0.00 | 0.00 | 0.00 | 69 | 1013.6 |
| 20260904160004 | 33 | 171 | 1.6 | 6.4 | 0.00 | 0.00 | 0.00 | 71 | 1013.6 |
| 20260904154525 | 33 | 137 | 1.6 | 8.0 | 0.00 | 0.00 | 0.00 | 71 | 1013.7 |
| 20260904153004 | 32 | 149 | 3.2 | 9.7 | 0.00 | 0.00 | 0.00 | 73 | 1013.6 |
| 20260904151504 | 32 | 179 | 3.2 | 9.7 | 0.00 | 0.00 | 0.00 | 73 | 1013.6 |
| 20260904150004 | 31 | 148 | 1.6 | 9.7 | 0.00 | 0.00 | 0.00 | 76 | 1013.8 |
| 20260904144524 | 31 | 167 | 1.6 | 8.0 | 0.00 | 0.00 | 0.00 | 78 | 1013.8 |
| 20260904143025 | 30 | 205 | 1.6 | 6.4 | 0.00 | 0.00 | 0.00 | 80 | 1013.9 |
| 20260904141503 | 30 | 163 | 1.6 | 9.7 | 0.00 | 0.00 | 0.00 | 81 | 1013.9 |
| 20260904140025 | 29 | 154 | 0.0 | 8.0 | 0.00 | 0.00 | 0.00 | 82 | 1013.8 |
| 20260904134504 | 28 | 188 | 0.0 | 6.4 | 0.00 | 0.00 | 0.00 | 82 | 1013.8 |
| 20260904133004 | 28 | 164 | 0.0 | 6.4 | 0.00 | 0.00 | 0.00 | 84 | 1013.8 |
| 20260904131504 | 27 | 181 | 0.0 | 6.4 | 0.00 | 0.00 | 0.00 | 85 | 1013.6 |
| 20260904130004 | 27 | 153 | 0.0 | 6.4 | 0.00 | 0.00 | 0.00 | 88 | 1014.0 |
| 20260904124503 | 27 | 147 | 0.0 | 8.0 | 0.00 | 0.00 | 0.00 | 89 | 1014.2 |
| 20260904123004 | 26 | 161 | 0.0 | 6.4 | 0.00 | 0.00 | 0.00 | 91 | 1014.1 |
| 20260904121504 | 26 | 140 | 0.0 | 6.4 | 0.00 | 0.00 | 0.00 | 92 | 1014.4 |
| 20260904120004 | 26 | 163 | 0.0 | 4.8 | 0.00 | 0.00 | 0.00 | 93 | 1014.5 |
| 20260904114525 | 26 | 0 | 0.0 | 0.0 | 0.00 | 0.00 | 0.00 | 93 | 1014.6 |
| 20260904113024 | 25 | 175 | 0.0 | 3.2 | 0.00 | 0.00 | 0.00 | 93 | 1014.3 |
| 20260904111504 | 25 | 169 | 0.0 | 1.6 | 0.00 | 0.00 | 0.00 | 94 | 1014.2 |
| 20260904110004 | 25 | 123 | 0.0 | 4.8 | 0.00 | 0.00 | 0.00 | 93 | 1013.9 |
| 20260904104503 | 25 | 163 | 0.0 | 8.0 | 0.00 | 0.00 | 0.00 | 94 | 1013.6 |
| 20260904103003 | 25 | 124 | 0.0 | 4.8 | 0.00 | 0.00 | 0.00 | 94 | 1013.9 |
| 20260904101504 | 25 | 163 | 0.0 | 1.6 | 0.00 | 0.00 | 0.00 | 93 | 1013.6 |
| 20260904100004 | 25 | 0 | 0.0 | 0.0 | 0.00 | 0.00 | 0.00 | 93 | 1014.0 |
| 20260904094504 | 25 | 103 | 0.0 | 1.6 | 0.00 | 0.00 | 0.00 | 92 | 1014.0 |
| 20260904093003 | 26 | 162 | 0.0 | 4.8 | 0.00 | 0.00 | 0.00 | 92 | 1013.9 |
| 20260904091504 | 26 | 166 | 0.0 | 8.0 | 0.00 | 0.00 | 0.00 | 91 | 1014.0 |
| 20260904090004 | 26 | 115 | 0.0 | 1.6 | 0.00 | 0.00 | 0.00 | 92 | 1014.1 |
| 20260904084503 | 26 | 227 | 0.0 | 6.4 | 0.00 | 0.00 | 0.00 | 92 | 1013.7 |